Weather reports worldwide

Advertisment
Olbia/Costa Smeralda, Italy (16531): temperature & dewpoint: 13.11.2019 19:00:00 - 19.11.2019 19:00:00 (CET)Olbia/Costa Smeralda, Italy (16531): wind speed: 13.11.2019 19:00:00 - 19.11.2019 19:00:00 (CET)Olbia/Costa Smeralda, Italy (16531): wind direction: 13.11.2019 19:00:00 - 19.11.2019 19:00:00 (CET)Olbia/Costa Smeralda, Italy (16531): reduced air pressure: 13.11.2019 19:00:00 - 19.11.2019 19:00:00 (CET)Olbia/Costa Smeralda, Italy (16531): visibility: 13.11.2019 19:00:00 - 19.11.2019 19:00:00 (CET)Olbia/Costa Smeralda, Italy (16531): precipitation: 13.11.2019 19:00:00 - 19.11.2019 19:00:00 (CET)
Date & Time tt [°C] td [°C] ff [km/h] ff [kn] dd ppp [hPa] vv [km] rr [mm]
19.11.2019 19:00:00 10,8 7,0 11 6 SW 1013,7 10 -
19.11.2019 18:00:00 12,0 7,0 15 8 SW - 10 -
19.11.2019 17:00:00 14,0 7,0 16 9 W - 10 -
19.11.2019 16:00:00 15,1 7,7 11 6 WSW 1012,1 10 0,0
19.11.2019 15:00:00 14,0 9,0 15 8 SW - 10 -
19.11.2019 14:00:00 15,0 10,0 15 8 SW - 10 -
19.11.2019 13:00:00 15,3 9,9 15 8 SW 1011,2 10 -
19.11.2019 12:00:00 14,0 10,0 21 11 SW - 10 -
19.11.2019 11:00:00 14,0 10,0 28 15 SW - 10 -
19.11.2019 10:00:00 13,5 9,8 21 11 WSW 1011,4 10 0,0
19.11.2019 09:00:00 13,0 10,0 18 10 SW - 10 -
19.11.2019 08:00:00 13,0 10,0 13 7 WSW - 10 -
19.11.2019 07:00:00 12,3 9,6 4 2 WNW 1009,5 10 -
19.11.2019 06:00:00 13,0 10,0 2 1 - - 10 -
19.11.2019 05:00:00 13,0 10,0 15 8 WSW - 10 -
19.11.2019 04:00:00 14,5 8,9 16 9 S 1008,3 10 0,0
19.11.2019 03:00:00 15,0 9,0 9 5 S - 10 -
19.11.2019 02:00:00 15,0 10,0 5 3 WSW - 10 -
19.11.2019 01:00:00 14,8 8,6 8 4 SW 1007,3 10 -
19.11.2019 00:00:00 14,0 9,0 8 4 ESE - 10 -
18.11.2019 23:00:00 12,0 7,0 4 2 - - 10 -
18.11.2019 22:00:00 11,9 7,3 2 1 - 1007,3 10 0,0
18.11.2019 21:00:00 13,0 7,0 9 5 WSW - 10 -
18.11.2019 20:00:00 16,0 6,0 11 6 S - 10 -
18.11.2019 19:00:00 15,7 5,5 13 7 SSE 1007,5 10 -
18.11.2019 18:00:00 16,0 4,0 8 4 S - 10 -
18.11.2019 17:00:00 16,0 4,0 11 6 SSE - 10 -
18.11.2019 16:00:00 16,3 5,0 11 6 SSE 1007,7 10 0,0
18.11.2019 15:00:00 18,0 6,0 15 8 SSE - 10 -
18.11.2019 14:00:00 17,0 8,0 5 3 NE - 10 -
18.11.2019 13:00:00 17,3 7,7 4 2 - 1009,1 10 -
18.11.2019 12:00:00 16,0 7,0 5 3 SE - 10 -
18.11.2019 11:00:00 16,0 9,0 5 3 WSW - 10 -
18.11.2019 10:00:00 14,6 8,0 9 5 S 1011,5 10 0,0
18.11.2019 09:00:00 11,0 10,0 4 2 - - 10 -
18.11.2019 08:00:00 8,0 8,0 2 1 - - 10 -
18.11.2019 07:00:00 8,4 7,9 5 3 WNW 1011,4 10 -
18.11.2019 06:00:00 8,0 8,0 5 3 W - 10 -
18.11.2019 05:00:00 9,0 8,0 4 2 - - 10 -
18.11.2019 04:00:00 9,5 8,3 4 2 - 1011,4 10 0,0
18.11.2019 03:00:00 - - - - - - - -
18.11.2019 02:00:00 9,0 8,0 11 6 SW - 10 -
18.11.2019 01:00:00 10,3 8,6 9 5 SSW 1011,2 10 -
18.11.2019 00:00:00 10,0 9,0 8 4 S - 10 -
17.11.2019 23:00:00 9,0 7,0 8 4 SSW - 10 -
17.11.2019 22:00:00 9,6 7,6 13 7 S 1010,8 10 0,0
17.11.2019 21:00:00 10,0 8,0 11 6 SSW - 10 -
17.11.2019 20:00:00 10,0 8,0 11 6 SSW - 10 -
17.11.2019 19:00:00 10,4 6,9 8 4 SW 1010,1 10 -
17.11.2019 18:00:00 11,0 7,0 9 5 W - 10 -
17.11.2019 17:00:00 13,0 8,0 11 6 SSW - 10 -
17.11.2019 16:00:00 14,8 7,3 21 11 W 1008,4 10 0,0
17.11.2019 15:00:00 15,0 7,0 31 17 WSW - 10 -
17.11.2019 14:00:00 15,0 9,0 34 18 W - 10 -
17.11.2019 13:00:00 15,4 6,7 35 19 W 1007,1 10 -
17.11.2019 12:00:00 15,0 9,0 26 14 W - 10 -
17.11.2019 11:00:00 14,0 8,0 34 18 W - 10 -
17.11.2019 10:00:00 14,1 9,0 26 14 W 1004,5 10 0,0
17.11.2019 09:00:00 13,0 9,0 29 16 W - 10 -
17.11.2019 08:00:00 12,0 8,0 28 15 WSW - 10 -
17.11.2019 07:00:00 10,9 8,8 22 12 SW 1001,1 10 -
17.11.2019 06:00:00 - - - - - - - -
17.11.2019 05:00:00 10,0 9,0 22 12 WSW - 10 -
17.11.2019 04:00:00 10,2 9,4 24 13 SW 999,3 10 0,0
17.11.2019 03:00:00 10,0 9,0 11 6 SW - 10 -
17.11.2019 02:00:00 11,0 10,0 8 4 NW - 10 -
17.11.2019 01:00:00 11,3 10,4 13 7 NNW 1000,7 10 -
17.11.2019 00:00:00 11,0 11,0 8 4 WNW - 10 -
16.11.2019 23:00:00 11,0 10,0 9 5 W - 10 -
16.11.2019 22:00:00 11,5 10,5 4 2 - 1002,8 10 0,0
16.11.2019 21:00:00 12,0 10,0 16 9 NNE - 7 -
16.11.2019 20:00:00 10,0 10,0 9 5 NNE - 7 -
16.11.2019 19:00:00 10,4 9,8 16 9 W 1006,1 7 -
16.11.2019 18:00:00 12,0 10,0 16 9 N - 7 -
16.11.2019 17:00:00 11,0 11,0 5 3 N - 10 -
16.11.2019 16:00:00 10,7 10,3 4 2 - 1007,8 7 0,0
16.11.2019 15:00:00 11,0 10,0 4 2 - - 9 -
16.11.2019 14:00:00 11,0 11,0 4 2 - - 10 -
16.11.2019 13:00:00 11,1 10,2 2 1 S 1009,7 9 -
16.11.2019 12:00:00 11,0 9,0 4 2 S - 10 -
16.11.2019 11:00:00 10,0 9,0 4 2 NE - 10 -
16.11.2019 10:00:00 9,9 8,9 4 2 S 1011,5 10 0,0
16.11.2019 09:00:00 8,0 8,0 9 5 WSW - 10 -
16.11.2019 08:00:00 7,0 7,0 9 5 SSW - 10 -
16.11.2019 07:00:00 6,0 5,8 13 7 WSW 1011,1 10 -
16.11.2019 06:00:00 6,0 5,0 9 5 WSW - 10 -
16.11.2019 05:00:00 6,0 5,0 5 3 SE - 10 -
16.11.2019 04:00:00 6,3 5,8 4 2 - 1009,7 10 0,0
16.11.2019 03:00:00 8,0 7,0 8 4 SSW - 10 -
16.11.2019 02:00:00 8,0 7,0 8 4 WNW - 10 -
16.11.2019 01:00:00 7,9 7,4 5 3 S 1008,9 10 -
16.11.2019 00:00:00 7,0 6,0 5 3 SSE - 10 -
15.11.2019 23:00:00 8,0 6,0 2 1 - - 10 -
15.11.2019 22:00:00 9,7 7,8 5 3 E 1006,9 10 0,0
15.11.2019 21:00:00 9,0 8,0 5 3 N - 10 -
15.11.2019 20:00:00 8,0 7,0 2 1 - - 10 -
15.11.2019 19:00:00 10,8 8,5 4 2 - 1004,7 10 -
15.11.2019 18:00:00 11,0 8,0 4 2 - - 10 -
15.11.2019 17:00:00 12,0 9,0 16 9 W - 10 -
15.11.2019 16:00:00 13,3 9,0 24 13 WSW 1003,4 10 0,0
15.11.2019 15:00:00 14,0 9,0 26 14 WSW - 10 -
15.11.2019 14:00:00 14,0 9,0 24 13 WSW - 10 -
15.11.2019 13:00:00 13,7 9,9 26 14 WSW 1002,5 10 -
15.11.2019 12:00:00 13,0 11,0 16 9 WSW - 10 -
15.11.2019 11:00:00 13,0 11,0 11 6 W - 10 -
15.11.2019 10:00:00 13,4 10,3 4 2 - 1003,3 10 0,0
15.11.2019 09:00:00 13,0 11,0 9 5 SW - 10 -
15.11.2019 08:00:00 12,0 11,0 2 1 - - 10 -
15.11.2019 07:00:00 11,5 11,1 4 2 - 1002,0 - -
15.11.2019 06:00:00 - - - - - - - -
15.11.2019 05:00:00 - - - - - - - -
15.11.2019 04:00:00 13,6 11,0 9 5 SSW 1001,9 - 0,0
15.11.2019 03:00:00 - - - - - - - -
15.11.2019 02:00:00 - - - - - - - -
15.11.2019 01:00:00 15,2 9,4 8 4 S 1001,7 - -
15.11.2019 00:00:00 - - - - - - - -
14.11.2019 23:00:00 16,0 8,0 16 9 SSE - 10 -
14.11.2019 22:00:00 15,7 7,7 15 8 SSE 1002,4 10 0,0
14.11.2019 21:00:00 15,0 9,0 5 3 - - 10 -
14.11.2019 20:00:00 13,0 9,0 4 2 - - 10 -
14.11.2019 19:00:00 12,9 8,3 5 3 SSE 1004,2 10 -
14.11.2019 18:00:00 15,0 9,0 13 7 SE - 10 -
14.11.2019 17:00:00 15,0 8,0 8 4 ESE - 10 -
14.11.2019 16:00:00 15,9 8,3 4 2 - 1004,5 10 0,0
14.11.2019 15:00:00 18,0 6,0 4 2 - - 10 -
14.11.2019 14:00:00 - - - - - - - -
14.11.2019 13:00:00 17,7 6,5 13 7 SW 1006,2 - -
14.11.2019 12:00:00 - - - - - - - -
14.11.2019 11:00:00 - - - - - - - -
14.11.2019 10:00:00 14,6 7,0 21 11 SW 1007,9 - 0,0
14.11.2019 09:00:00 - - - - - - - -
14.11.2019 08:00:00 - - - - - - - -
14.11.2019 07:00:00 8,9 6,5 21 11 SW 1007,0 10 -
14.11.2019 06:00:00 10,0 7,0 15 8 SW - 10 -
14.11.2019 05:00:00 10,0 7,0 16 9 SW - 10 -
14.11.2019 04:00:00 10,1 7,2 9 5 SW 1007,2 10 0,0
14.11.2019 03:00:00 11,0 7,0 11 6 SW - 10 -
14.11.2019 02:00:00 12,0 7,0 16 9 SW - 10 -
14.11.2019 01:00:00 12,1 7,5 13 7 SW 1007,0 10 -
14.11.2019 00:00:00 13,0 8,0 13 7 SW - 10 -
13.11.2019 23:00:00 13,0 8,0 8 4 W - 10 -
13.11.2019 22:00:00 13,1 8,0 9 5 WSW 1006,9 10 0,0
13.11.2019 21:00:00 13,0 7,0 5 3 WSW - 10 -
13.11.2019 20:00:00 13,0 8,0 18 10 WSW - 10 -
13.11.2019 19:00:00 13,0 8,4 13 7 WSW 1005,9 10 -

tt = temperature
td = dewpoint
ff = wind speed
dd = wind direction
ppp = reduced air pressure
vv = visibility
rr = precipitation

Next stations